QPF
0.04 0.06 0.10 0.12 0.12 0.15 0.19 0.17 0.14 0.14 0.14 0.11 0.10 0.09 0.06 0.06 0.06 0.06 0.05 0.05 0.07 0.04 0.03 0.02 0.03 0.04 0.05 0.06 0.06 0.06 0.07 0.07 0.07 0.08 0.07 0.04 0.02 0.02 0.02 0.02 0.02 0.03 0.02
0.04 0.05 0.07 0.07 0.07 0.06 0.11 0.18 0.19 0.18 0.16 0.12 0.10 0.09 0.07 0.06 0.06 0.06 0.04 0.05 0.08 0.08 0.03 0.03 0.04 0.04 0.04 0.05 0.05 0.05 0.06 0.06 0.07 0.07 0.06 0.04 0.03 0.02 0.01 0.01 0.01 0.02 0.03
0.04 0.04 0.05 0.07 0.06 0.04 0.06 0.10 0.16 0.17 0.17 0.14 0.12 0.09 0.10 0.10 0.09 0.08 0.05 0.05 0.07 0.08 0.05 0.04 0.05 0.05 0.05 0.06 0.05 0.04 0.04 0.06 0.08 0.07 0.07 0.06 0.03 0.02 0.01 0.01 0.01 0.01 0.02
0.05 0.04 0.05 0.06 0.05 0.05 0.06 0.09 0.13 0.12 0.14 0.13 0.11 0.09 0.09 0.09 0.06 0.06 0.06 0.05 0.07 0.07 0.07 0.07 0.08 0.08 0.08 0.08 0.06 0.04 0.04 0.05 0.07 0.09 0.08 0.06 0.04 0.03 0.01 0.01 0.01 0.01 0.01
0.07 0.06 0.07 0.06 0.06 0.05 0.05 0.07 0.12 0.10 0.10 0.10 0.10 0.09 0.10 0.10 0.06 0.07 0.08 0.07 0.06 0.05 0.05 0.06 0.07 0.08 0.09 0.10 0.09 0.07 0.05 0.05 0.06 0.08 0.07 0.06 0.04 0.02 0.01 0.00 0.00 0.00 0.01
0.07 0.07 0.09 0.07 0.06 0.05 0.05 0.07 0.12 0.11 0.09 0.09 0.09 0.10 0.11 0.10 0.07 0.06 0.07 0.07 0.07 0.06 0.06 0.06 0.06 0.08 0.09 0.09 0.09 0.08 0.06 0.05 0.05 0.05 0.06 0.04 0.03 0.02 0.01 0.01 0.00 0.00 0.00
0.07 0.08 0.09 0.06 0.04 0.03 0.04 0.08 0.11 0.14 0.11 0.09 0.07 0.08 0.08 0.08 0.06 0.06 0.06 0.06 0.07 0.06 0.05 0.05 0.07 0.08 0.09 0.08 0.06 0.05 0.04 0.03 0.02 0.03 0.03 0.03 0.02 0.02 0.02 0.02 0.01 0.01 0.01
0.06 0.07 0.07 0.07 0.03 0.02 0.04 0.11 0.08 0.10 0.15 0.12 0.08 0.08 0.06 0.05 0.05 0.04 0.05 0.06 0.04 0.03 0.04 0.04 0.05 0.05 0.04 0.04 0.04 0.03 0.03 0.02 0.01 0.02 0.03 0.03 0.03 0.03 0.03 0.03 0.03 0.02 0.01
0.05 0.06 0.05 0.05 0.03 0.01 0.02 0.06 0.06 0.09 0.15 0.14 0.09 0.08 0.05 0.05 0.05 0.04 0.04 0.04 0.03 0.03 0.03 0.02 0.03 0.03 0.03 0.02 0.02 0.02 0.03 0.02 0.01 0.02 0.02 0.02 0.02 0.03 0.03 0.03 0.03 0.03 0.02
0.03 0.04 0.03 0.03 0.01 0.01 0.01 0.03 0.05 0.11 0.13 0.12 0.08 0.07 0.06 0.05 0.04 0.04 0.03 0.02 0.03 0.03 0.03 0.02 0.02 0.03 0.02 0.02 0.01 0.02 0.03 0.02 0.01 0.01 0.01 0.02 0.02 0.02 0.03 0.05 0.05 0.04 0.04
0.02 0.02 0.01 0.01 0.01 0.01 0.01 0.03 0.06 0.12 0.10 0.08 0.07 0.06 0.06 0.05 0.04 0.04 0.03 0.02 0.03 0.02 0.03 0.04 0.04 0.03 0.02 0.01 0.01 0.01 0.02 0.02 0.01 0.01 0.01 0.01 0.01 0.01 0.01 0.03 0.03 0.04 0.03
0.01 0.01 0.01 0.01 0.01 0.02 0.03 0.04 0.07 0.11 0.09 0.07 0.07 0.07 0.06 0.05 0.04 0.03 0.03 0.02 0.02 0.02 0.01 0.02 0.02 0.03 0.02 0.01 0.01 0.00 0.01 0.01 0.01 0.01 0.01 0.01 0.01 0.01 0.01 0.01 0.02 0.02 0.03
0.01 0.00 0.01 0.01 0.02 0.03 0.03 0.05 0.05 0.08 0.08 0.07 0.06 0.05 0.04 0.04 0.03 0.03 0.04 0.03 0.02 0.02 0.01 0.02 0.01 0.01 0.02 0.01 0.01 0.01 0.01 0.01 0.01 0.01 0.01 0.01 0.01 0.01 0.00 0.00 0.01 0.02 0.02
0.01 0.01 0.01 0.01 0.02 0.03 0.04 0.05 0.05 0.05 0.04 0.05 0.04 0.03 0.03 0.03 0.03 0.03 0.03 0.04 0.04 0.02 0.02 0.01 0.02 0.02 0.04 0.03 0.03 0.03 0.03 0.03 0.03 0.02 0.02 0.02 0.02 0.02 0.01 0.01 0.01 0.02 0.03
0.01 0.01 0.01 0.01 0.02 0.03 0.03 0.02 0.03 0.04 0.04 0.04 0.03 0.02 0.03 0.02 0.03 0.03 0.04 0.04 0.04 0.03 0.03 0.03 0.03 0.03 0.05 0.06 0.06 0.06 0.05 0.05 0.04 0.03 0.03 0.03 0.04 0.04 0.03 0.03 0.03 0.03 0.03
0.01 0.02 0.02 0.02 0.03 0.02 0.02 0.02 0.02 0.02 0.03 0.03 0.02 0.02 0.02 0.02 0.02 0.02 0.03 0.04 0.04 0.05 0.05 0.05 0.05 0.05 0.05 0.05 0.05 0.06 0.05 0.04 0.04 0.04 0.04 0.04 0.04 0.04 0.03 0.03 0.03 0.03 0.03
0.01 0.03 0.02 0.02 0.02 0.01 0.01 0.03 0.04 0.03 0.02 0.01 0.01 0.01 0.02 0.02 0.02 0.02 0.03 0.03 0.03 0.03 0.04 0.04 0.04 0.03 0.04 0.04 0.04 0.04 0.04 0.03 0.04 0.04 0.03 0.03 0.03 0.02 0.01 0.02 0.02 0.02 0.02
0.02 0.03 0.02 0.02 0.02 0.02 0.03 0.05 0.04 0.03 0.01 0.01 0.01 0.02 0.03 0.02 0.02 0.03 0.02 0.02 0.02 0.02 0.02 0.03 0.03 0.03 0.03 0.04 0.04 0.04 0.04 0.04 0.04 0.03 0.03 0.03 0.02 0.01 0.01 0.01 0.01 0.01 0.01
0.03 0.03 0.02 0.02 0.03 0.04 0.05 0.03 0.02 0.02 0.01 0.01 0.02 0.03 0.02 0.01 0.01 0.02 0.01 0.01 0.01 0.01 0.02 0.02 0.02 0.02 0.02 0.02 0.03 0.04 0.03 0.03 0.03 0.03 0.03 0.02 0.01 0.01 0.01 0.01 0.01 0.01 0.01
0.05 0.04 0.03 0.04 0.03 0.04 0.03 0.02 0.01 0.01 0.01 0.01 0.01 0.02 0.01 0.00 0.01 0.01 0.01 0.01 0.01 0.01 0.01 0.02 0.02 0.02 0.02 0.02 0.02 0.03 0.03 0.04 0.04 0.03 0.02 0.01 0.01 0.01 0.01 0.01 0.01 0.01 0.01
0.04 0.04 0.03 0.03 0.03 0.03 0.01 0.01 0.01 0.01 0.01 0.01 0.01 0.01 0.01 0.01 0.01 0.01 0.01 0.01 0.01 0.01 0.02 0.02 0.02 0.02 0.02 0.02 0.02 0.03 0.03 0.04 0.03 0.02 0.02 0.01 0.01 0.01 0.01 0.02 0.02 0.02 0.01
0.02 0.02 0.02 0.02 0.02 0.01 0.01 0.00 0.01 0.01 0.01 0.01 0.01 0.01 0.01 0.01 0.01 0.01 0.01 0.01 0.01 0.01 0.02 0.02 0.02 0.01 0.01 0.02 0.02 0.03 0.03 0.03 0.02 0.02 0.02 0.02 0.01 0.01 0.01 0.02 0.02 0.02 0.01
0.02 0.02 0.02 0.02 0.02 0.01 0.01 0.01 0.01 0.01 0.02 0.01 0.01 0.01 0.01 0.00 0.01 0.01 0.01 0.01 0.01 0.01 0.02 0.02 0.02 0.02 0.02 0.02 0.04 0.03 0.02 0.03 0.02 0.02 0.02 0.02 0.02 0.02 0.02 0.02 0.02 0.01 0.01
0.02 0.01 0.01 0.02 0.02 0.01 0.02 0.01 0.01 0.01 0.02 0.01 0.01 0.01 0.01 0.01 0.01 0.01 0.01 0.01 0.01 0.01 0.01 0.02 0.02 0.02 0.02 0.02 0.03 0.02 0.02 0.02 0.02 0.01 0.02 0.02 0.02 0.02 0.01 0.01 0.01 0.01 0.00
0.01 0.01 0.02 0.02 0.02 0.01 0.02 0.01 0.01 0.01 0.01 0.01 0.01 0.01 0.01 0.01 0.01 0.02 0.02 0.01 0.01 0.01 0.01 0.02 0.02 0.02 0.02 0.03 0.03 0.03 0.02 0.02 0.03 0.03 0.02 0.01 0.01 0.01 0.01 0.01 0.00 0.00 0.00
0.01 0.01 0.01 0.01 0.01 0.01 0.01 0.01 0.01 0.00 0.00 0.00 0.00 0.01 0.01 0.01 0.02 0.03 0.02 0.02 0.02 0.02 0.02 0.03 0.03 0.03 0.03 0.03 0.02 0.01 0.01 0.01 0.02 0.02 0.02 0.02 0.02 0.01 0.01 0.01 0.01 0.01 0.01
MSLP
1018.05 1017.72 1017.37 1016.98 1016.56 1016.09 1015.60 1015.11 1014.63 1014.18 1013.79 1013.45 1013.16 1012.92 1012.72 1012.54 1012.39 1012.25 1012.14 1012.06 1012.01 1012.01 1012.06 1012.16 1012.30 1012.48 1012.67 1012.87 1013.05 1013.19 1013.29 1013.32 1013.28 1013.18 1013.02 1012.81 1012.57 1012.30 1012.04 1011.79 1011.56 1011.38 1011.23
1018.16 1017.87 1017.56 1017.19 1016.77 1016.30 1015.81 1015.32 1014.87 1014.48 1014.15 1013.89 1013.67 1013.48 1013.29 1013.10 1012.90 1012.70 1012.50 1012.34 1012.22 1012.18 1012.20 1012.30 1012.46 1012.66 1012.86 1013.07 1013.24 1013.37 1013.46 1013.48 1013.45 1013.38 1013.25 1013.09 1012.88 1012.65 1012.40 1012.14 1011.88 1011.64 1011.41
1018.21 1017.99 1017.72 1017.39 1016.98 1016.51 1016.02 1015.54 1015.12 1014.77 1014.50 1014.30 1014.15 1014.01 1013.86 1013.68 1013.47 1013.23 1012.99 1012.78 1012.62 1012.54 1012.55 1012.63 1012.78 1012.96 1013.15 1013.33 1013.48 1013.58 1013.64 1013.66 1013.64 1013.60 1013.53 1013.42 1013.28 1013.09 1012.86 1012.59 1012.28 1011.96 1011.63
1018.20 1018.06 1017.85 1017.56 1017.17 1016.71 1016.22 1015.75 1015.34 1015.02 1014.79 1014.64 1014.54 1014.46 1014.35 1014.20 1014.00 1013.77 1013.52 1013.30 1013.13 1013.03 1013.02 1013.09 1013.21 1013.36 1013.51 1013.64 1013.73 1013.79 1013.82 1013.83 1013.83 1013.82 1013.81 1013.77 1013.69 1013.55 1013.34 1013.05 1012.69 1012.28 1011.84
1018.13 1018.07 1017.94 1017.69 1017.34 1016.90 1016.41 1015.94 1015.52 1015.21 1015.00 1014.88 1014.82 1014.78 1014.71 1014.60 1014.44 1014.23 1014.01 1013.80 1013.64 1013.55 1013.54 1013.59 1013.68 1013.78 1013.88 1013.94 1013.98 1013.98 1013.97 1013.97 1013.98 1014.01 1014.05 1014.07 1014.06 1013.96 1013.77 1013.46 1013.05 1012.55 1011.99
1018.00 1018.03 1017.96 1017.78 1017.47 1017.05 1016.57 1016.09 1015.66 1015.34 1015.13 1015.01 1014.96 1014.95 1014.91 1014.84 1014.72 1014.55 1014.37 1014.20 1014.07 1014.00 1013.99 1014.03 1014.09 1014.16 1014.20 1014.20 1014.17 1014.13 1014.08 1014.06 1014.07 1014.13 1014.21 1014.28 1014.31 1014.25 1014.07 1013.75 1013.30 1012.72 1012.06
1017.84 1017.94 1017.94 1017.82 1017.55 1017.15 1016.68 1016.20 1015.76 1015.42 1015.18 1015.05 1015.00 1014.98 1014.97 1014.92 1014.84 1014.72 1014.59 1014.46 1014.37 1014.32 1014.32 1014.36 1014.40 1014.43 1014.42 1014.38 1014.30 1014.20 1014.12 1014.08 1014.09 1014.15 1014.25 1014.36 1014.42 1014.38 1014.22 1013.89 1013.41 1012.78 1012.06
1017.68 1017.83 1017.88 1017.80 1017.57 1017.20 1016.75 1016.26 1015.82 1015.45 1015.19 1015.04 1014.96 1014.94 1014.92 1014.89 1014.83 1014.75 1014.65 1014.57 1014.51 1014.49 1014.50 1014.54 1014.56 1014.57 1014.53 1014.45 1014.33 1014.21 1014.10 1014.03 1014.03 1014.09 1014.19 1014.30 1014.37 1014.35 1014.20 1013.88 1013.39 1012.76 1012.01
1017.54 1017.71 1017.80 1017.75 1017.55 1017.21 1016.77 1016.30 1015.85 1015.47 1015.19 1015.01 1014.91 1014.87 1014.84 1014.81 1014.76 1014.70 1014.63 1014.57 1014.53 1014.52 1014.54 1014.58 1014.60 1014.59 1014.54 1014.44 1014.30 1014.16 1014.03 1013.94 1013.92 1013.96 1014.05 1014.15 1014.21 1014.20 1014.05 1013.76 1013.29 1012.68 1011.96
1017.43 1017.61 1017.70 1017.67 1017.49 1017.17 1016.76 1016.30 1015.87 1015.50 1015.21 1015.02 1014.90 1014.84 1014.80 1014.76 1014.71 1014.64 1014.58 1014.52 1014.48 1014.48 1014.50 1014.52 1014.54 1014.53 1014.47 1014.37 1014.24 1014.09 1013.95 1013.86 1013.81 1013.82 1013.87 1013.94 1013.99 1013.97 1013.83 1013.56 1013.15 1012.60 1011.93
1017.38 1017.53 1017.61 1017.57 1017.39 1017.10 1016.71 1016.29 1015.89 1015.54 1015.27 1015.08 1014.96 1014.89 1014.84 1014.78 1014.72 1014.65 1014.57 1014.50 1014.45 1014.42 1014.42 1014.44 1014.45 1014.43 1014.39 1014.30 1014.18 1014.04 1013.91 1013.80 1013.74 1013.71 1013.72 1013.75 1013.76 1013.71 1013.59 1013.35 1012.99 1012.52 1011.94
1017.37 1017.48 1017.52 1017.46 1017.28 1017.00 1016.64 1016.27 1015.90 1015.59 1015.36 1015.19 1015.09 1015.02 1014.97 1014.91 1014.83 1014.74 1014.64 1014.54 1014.47 1014.41 1014.38 1014.37 1014.36 1014.35 1014.31 1014.25 1014.15 1014.04 1013.92 1013.81 1013.72 1013.66 1013.62 1013.59 1013.55 1013.48 1013.35 1013.14 1012.83 1012.44 1011.95
1017.38 1017.44 1017.43 1017.34 1017.15 1016.88 1016.55 1016.22 1015.91 1015.65 1015.46 1015.34 1015.26 1015.21 1015.17 1015.11 1015.03 1014.92 1014.79 1014.66 1014.55 1014.45 1014.39 1014.34 1014.32 1014.30 1014.27 1014.22 1014.15 1014.06 1013.96 1013.85 1013.75 1013.65 1013.56 1013.48 1013.38 1013.27 1013.12 1012.92 1012.66 1012.33 1011.94
1017.38 1017.39 1017.34 1017.21 1017.00 1016.74 1016.45 1016.16 1015.90 1015.70 1015.56 1015.47 1015.43 1015.41 1015.38 1015.33 1015.24 1015.12 1014.98 1014.83 1014.67 1014.54 1014.43 1014.35 1014.30 1014.27 1014.24 1014.21 1014.16 1014.10 1014.02 1013.91 1013.79 1013.67 1013.53 1013.38 1013.23 1013.06 1012.88 1012.67 1012.43 1012.16 1011.84
1017.34 1017.32 1017.23 1017.07 1016.86 1016.60 1016.34 1016.09 1015.88 1015.72 1015.62 1015.57 1015.56 1015.56 1015.54 1015.50 1015.42 1015.30 1015.15 1014.97 1014.79 1014.63 1014.48 1014.37 1014.29 1014.24 1014.21 1014.18 1014.15 1014.10 1014.04 1013.94 1013.81 1013.66 1013.47 1013.27 1013.06 1012.83 1012.60 1012.37 1012.14 1011.89 1011.63
1017.26 1017.21 1017.10 1016.93 1016.71 1016.47 1016.24 1016.02 1015.84 1015.72 1015.65 1015.62 1015.62 1015.63 1015.62 1015.59 1015.52 1015.40 1015.24 1015.06 1014.87 1014.68 1014.50 1014.36 1014.26 1014.18 1014.14 1014.11 1014.08 1014.05 1013.99 1013.90 1013.76 1013.59 1013.37 1013.12 1012.85 1012.57 1012.30 1012.03 1011.78 1011.54 1011.31
1017.12 1017.06 1016.95 1016.78 1016.58 1016.37 1016.16 1015.97 1015.82 1015.71 1015.65 1015.62 1015.62 1015.62 1015.61 1015.58 1015.51 1015.39 1015.24 1015.06 1014.87 1014.67 1014.48 1014.31 1014.18 1014.08 1014.02 1013.98 1013.95 1013.91 1013.86 1013.77 1013.63 1013.44 1013.20 1012.92 1012.61 1012.29 1011.97 1011.67 1011.39 1011.15 1010.92
1016.93 1016.88 1016.78 1016.64 1016.48 1016.30 1016.13 1015.97 1015.83 1015.73 1015.66 1015.61 1015.58 1015.56 1015.53 1015.48 1015.40 1015.30 1015.15 1014.99 1014.80 1014.60 1014.41 1014.23 1014.07 1013.96 1013.87 1013.81 1013.76 1013.72 1013.66 1013.57 1013.43 1013.24 1012.99 1012.70 1012.36 1012.02 1011.66 1011.34 1011.04 1010.78 1010.55
1016.70 1016.67 1016.61 1016.51 1016.40 1016.27 1016.14 1016.01 1015.89 1015.78 1015.69 1015.61 1015.54 1015.48 1015.42 1015.35 1015.26 1015.15 1015.02 1014.87 1014.69 1014.51 1014.32 1014.13 1013.97 1013.83 1013.71 1013.62 1013.56 1013.50 1013.43 1013.34 1013.20 1013.01 1012.77 1012.48 1012.15 1011.80 1011.44 1011.10 1010.78 1010.51 1010.28
1016.44 1016.45 1016.43 1016.39 1016.33 1016.26 1016.18 1016.09 1015.99 1015.88 1015.77 1015.66 1015.55 1015.44 1015.34 1015.24 1015.13 1015.02 1014.90 1014.76 1014.60 1014.43 1014.25 1014.07 1013.89 1013.73 1013.59 1013.47 1013.38 1013.29 1013.21 1013.11 1012.98 1012.80 1012.58 1012.31 1012.00 1011.67 1011.33 1010.99 1010.68 1010.41 1010.18
1016.17 1016.21 1016.23 1016.25 1016.26 1016.26 1016.23 1016.19 1016.12 1016.02 1015.90 1015.76 1015.62 1015.47 1015.33 1015.20 1015.07 1014.95 1014.83 1014.70 1014.56 1014.40 1014.23 1014.04 1013.86 1013.68 1013.51 1013.36 1013.24 1013.13 1013.03 1012.92 1012.79 1012.64 1012.44 1012.21 1011.94 1011.64 1011.33 1011.03 1010.74 1010.48 1010.25
1015.89 1015.95 1016.02 1016.09 1016.16 1016.22 1016.26 1016.26 1016.23 1016.16 1016.04 1015.90 1015.73 1015.56 1015.39 1015.22 1015.08 1014.95 1014.82 1014.70 1014.56 1014.41 1014.24 1014.06 1013.86 1013.66 1013.47 1013.30 1013.14 1013.00 1012.88 1012.76 1012.64 1012.50 1012.34 1012.15 1011.92 1011.68 1011.42 1011.16 1010.91 1010.68 1010.47
1015.60 1015.68 1015.78 1015.88 1016.00 1016.11 1016.20 1016.27 1016.28 1016.24 1016.15 1016.02 1015.85 1015.66 1015.48 1015.30 1015.14 1014.99 1014.86 1014.73 1014.59 1014.44 1014.27 1014.08 1013.87 1013.65 1013.44 1013.23 1013.05 1012.88 1012.74 1012.61 1012.50 1012.37 1012.24 1012.10 1011.93 1011.74 1011.54 1011.34 1011.14 1010.95 1010.77
1015.32 1015.39 1015.49 1015.62 1015.76 1015.91 1016.04 1016.15 1016.22 1016.22 1016.17 1016.06 1015.91 1015.74 1015.55 1015.37 1015.19 1015.04 1014.89 1014.74 1014.60 1014.43 1014.25 1014.05 1013.83 1013.59 1013.35 1013.13 1012.92 1012.73 1012.57 1012.44 1012.32 1012.22 1012.12 1012.01 1011.90 1011.77 1011.64 1011.50 1011.35 1011.22 1011.08
1015.02 1015.08 1015.17 1015.29 1015.43 1015.60 1015.76 1015.91 1016.01 1016.06 1016.05 1015.98 1015.87 1015.72 1015.54 1015.36 1015.19 1015.02 1014.85 1014.69 1014.52 1014.33 1014.13 1013.91 1013.67 1013.42 1013.17 1012.92 1012.70 1012.50 1012.33 1012.19 1012.09 1012.00 1011.92 1011.86 1011.79 1011.72 1011.65 1011.57 1011.49 1011.41 1011.32
1014.71 1014.74 1014.80 1014.90 1015.03 1015.19 1015.36 1015.52 1015.65 1015.74 1015.77 1015.75 1015.67 1015.55 1015.40 1015.24 1015.06 1014.88 1014.69 1014.51 1014.31 1014.10 1013.87 1013.63 1013.38 1013.11 1012.85 1012.60 1012.37 1012.17 1012.01 1011.87 1011.78 1011.71 1011.66 1011.63 1011.61 1011.59 1011.58 1011.56 1011.54 1011.51 1011.47
Thickness
5711 5713 5714 5714 5712 5711 5710 5710 5708 5706 5704 5702 5700 5698 5698 5698 5697 5696 5696 5695 5694 5693 5692 5691 5690 5689 5688 5688 5687 5685 5684 5683 5683 5682 5680 5680 5681 5681 5681 5682 5682 5681 5681
5704 5707 5708 5709 5708 5706 5705 5704 5703 5701 5700 5698 5696 5695 5695 5694 5694 5693 5692 5692 5691 5690 5689 5688 5686 5686 5684 5683 5682 5681 5679 5677 5677 5676 5673 5671 5672 5674 5676 5676 5677 5677 5677
5698 5700 5701 5702 5702 5701 5700 5700 5698 5697 5696 5696 5694 5692 5691 5689 5689 5689 5688 5687 5687 5686 5686 5685 5683 5682 5681 5679 5678 5677 5675 5672 5672 5672 5669 5666 5664 5666 5669 5670 5671 5671 5671
5697 5696 5697 5697 5697 5696 5696 5696 5694 5693 5693 5693 5691 5689 5686 5683 5684 5684 5684 5684 5684 5683 5683 5682 5680 5678 5677 5675 5674 5673 5672 5670 5667 5666 5666 5665 5664 5661 5661 5663 5665 5666 5666
5695 5694 5694 5693 5693 5692 5693 5692 5691 5690 5690 5689 5688 5686 5683 5682 5681 5681 5680 5680 5681 5680 5679 5678 5677 5675 5673 5672 5670 5669 5668 5666 5664 5663 5662 5660 5659 5658 5656 5656 5658 5659 5660
5692 5692 5691 5690 5688 5689 5689 5688 5687 5687 5687 5686 5686 5684 5681 5680 5678 5677 5676 5675 5676 5676 5676 5675 5673 5672 5670 5669 5667 5666 5664 5663 5661 5660 5659 5658 5656 5655 5653 5651 5651 5651 5653
5688 5687 5687 5686 5685 5685 5685 5685 5684 5683 5683 5683 5682 5681 5679 5678 5676 5674 5673 5672 5672 5671 5671 5671 5670 5668 5667 5666 5664 5662 5661 5659 5658 5657 5656 5655 5654 5653 5650 5647 5645 5644 5646
5684 5684 5684 5683 5682 5682 5682 5681 5681 5681 5681 5680 5679 5679 5678 5676 5674 5672 5670 5669 5669 5669 5669 5668 5667 5665 5663 5662 5660 5658 5657 5655 5654 5653 5652 5651 5649 5648 5646 5643 5640 5638 5638
5682 5682 5681 5680 5679 5679 5679 5679 5678 5678 5678 5678 5677 5677 5676 5675 5673 5671 5668 5667 5667 5667 5666 5665 5663 5661 5660 5658 5656 5655 5653 5651 5650 5649 5647 5646 5644 5643 5640 5638 5636 5634 5632
5679 5679 5679 5678 5678 5678 5678 5677 5677 5676 5676 5676 5675 5675 5674 5673 5671 5669 5667 5666 5665 5664 5663 5662 5660 5658 5656 5655 5653 5650 5648 5647 5645 5644 5642 5641 5639 5637 5635 5633 5631 5629 5627
5678 5677 5677 5677 5677 5676 5676 5676 5675 5675 5674 5674 5674 5673 5672 5670 5669 5668 5666 5664 5663 5662 5660 5659 5658 5656 5654 5651 5649 5647 5645 5643 5641 5640 5638 5636 5635 5633 5631 5629 5626 5624 5622
5677 5677 5676 5676 5675 5675 5675 5674 5673 5673 5673 5672 5672 5671 5670 5668 5667 5666 5664 5662 5660 5659 5658 5656 5655 5653 5651 5648 5646 5644 5642 5640 5638 5637 5635 5633 5632 5629 5627 5625 5622 5620 5617
5677 5676 5675 5674 5674 5673 5673 5672 5672 5672 5671 5670 5669 5668 5667 5665 5664 5663 5662 5660 5658 5657 5655 5653 5652 5650 5648 5646 5644 5642 5640 5637 5635 5634 5632 5630 5628 5626 5624 5621 5619 5616 5614
5676 5674 5673 5673 5672 5672 5671 5671 5670 5670 5669 5668 5666 5665 5664 5663 5662 5661 5659 5658 5656 5654 5653 5651 5650 5648 5647 5644 5642 5640 5637 5635 5633 5631 5630 5628 5626 5624 5622 5619 5616 5613 5609
5674 5674 5673 5672 5671 5671 5670 5669 5669 5668 5667 5665 5664 5663 5662 5661 5660 5659 5657 5656 5654 5653 5651 5649 5647 5646 5644 5642 5640 5637 5635 5632 5630 5628 5627 5626 5624 5622 5619 5616 5613 5609 5606
5675 5674 5674 5672 5671 5670 5669 5668 5667 5666 5665 5663 5662 5662 5660 5659 5658 5657 5655 5654 5652 5650 5649 5646 5645 5643 5642 5639 5637 5634 5632 5629 5626 5625 5624 5623 5621 5619 5616 5613 5611 5608 5604
5676 5675 5674 5673 5671 5670 5669 5667 5666 5665 5663 5662 5661 5660 5658 5657 5656 5655 5653 5650 5648 5647 5645 5643 5641 5640 5638 5636 5634 5631 5628 5626 5623 5622 5620 5620 5618 5615 5612 5610 5607 5604 5601
5676 5675 5675 5674 5672 5670 5669 5667 5666 5664 5662 5660 5659 5658 5657 5655 5653 5651 5649 5647 5645 5643 5641 5639 5637 5636 5635 5633 5631 5628 5625 5622 5621 5619 5617 5616 5614 5611 5608 5605 5603 5600 5597
5678 5677 5675 5674 5672 5670 5668 5666 5664 5662 5660 5658 5657 5656 5655 5653 5651 5648 5646 5644 5641 5639 5637 5636 5634 5632 5631 5629 5627 5625 5622 5620 5618 5617 5615 5613 5610 5608 5604 5601 5597 5595 5592
5678 5676 5675 5673 5670 5668 5667 5664 5662 5660 5658 5657 5656 5654 5653 5651 5648 5645 5643 5641 5639 5637 5635 5633 5631 5630 5628 5626 5624 5622 5620 5617 5616 5615 5613 5610 5607 5604 5600 5596 5593 5590 5588
5677 5675 5673 5670 5669 5667 5665 5662 5660 5658 5657 5656 5654 5652 5650 5648 5646 5643 5641 5638 5636 5634 5632 5630 5629 5627 5625 5623 5622 5619 5617 5615 5613 5612 5609 5607 5603 5600 5596 5593 5589 5586 5583
5675 5673 5670 5668 5667 5665 5663 5660 5658 5658 5656 5654 5652 5650 5647 5646 5644 5640 5638 5636 5633 5631 5629 5627 5626 5625 5623 5621 5619 5617 5614 5612 5610 5608 5606 5603 5600 5596 5593 5589 5586 5582 5578
5672 5671 5668 5666 5665 5663 5662 5659 5658 5656 5654 5652 5649 5647 5645 5643 5641 5638 5636 5633 5631 5629 5627 5625 5622 5622 5621 5618 5616 5614 5612 5610 5607 5605 5602 5599 5596 5593 5590 5586 5583 5579 5576
5669 5668 5666 5664 5663 5662 5661 5659 5658 5655 5652 5649 5646 5644 5642 5640 5638 5635 5633 5631 5628 5626 5624 5622 5620 5619 5617 5615 5613 5611 5609 5607 5604 5601 5598 5595 5593 5590 5586 5583 5580 5577 5573
5667 5665 5664 5663 5662 5661 5659 5658 5656 5653 5650 5647 5644 5641 5639 5637 5634 5632 5630 5629 5627 5625 5622 5621 5618 5616 5614 5613 5610 5608 5605 5603 5600 5597 5594 5592 5589 5587 5584 5581 5577 5574 5571
5664 5663 5662 5661 5661 5659 5658 5657 5655 5652 5648 5644 5641 5639 5637 5634 5632 5630 5628 5627 5625 5623 5621 5618 5616 5614 5611 5610 5607 5605 5603 5599 5596 5593 5591 5589 5586 5584 5581 5578 5575 5572 5569